Location: Stockholm
(59.3333°N, 18.0500°E)
Time: 15:00:43
(UTC+02:00)

ISS - Pass Details

Date: 11 May 2018
Orbit: 402 x 407 km, 51.6° (Epoch: 24 May)

Event Time Altitude Azimuth Distance (km) Brightness Sun altitude
Exits shadow 03:03:53 - 189° (S) 1,542 -1.5 -7.7°
Reaches altitude 10° 03:04:17 10° 183° (S) 1,456 -1.5 -7.7°
Maximum altitude 03:05:49 13° 155° (SSE) 1,302 -1.6 -7.6°
Drops below altitude 10° 03:07:20 10° 127° (SE) 1,458 -1.0 -7.5°
Sets 03:10:18 0° 98° (E) 2,321 0.4 -7.3°
